Time,TemperatureF,DewpointF,PressureIn,WindDirection,WindDirectionDegrees,WindSpeedMPH,WindSpeedGustMPH,Humidity,HourlyPrecipIn,Conditions,Clouds,dailyrainin,SoftwareType,DateUTC
2013-10-27 00:00:00,41.8,32.8,30.14,SSW,209,0.0,0.0,70,0.00,,---,0.00,VWS V14.00,2013-10-27 06:00:00,
2013-10-27 00:06:00,41.7,32.7,30.11,SSW,209,0.0,1.0,70,0.00,,---,0.00,VWS V14.00,2013-10-27 06:06:00,
2013-10-27 00:12:00,41.7,32.7,30.11,SSW,202,0.0,0.0,70,0.00,,---,0.00,VWS V14.00,2013-10-27 06:12:00,
2013-10-27 00:17:00,41.6,32.6,30.10,SSW,209,0.0,0.0,70,0.00,,---,0.00,VWS V14.00,2013-10-27 06:17:00,
2013-10-27 00:22:00,41.6,32.6,30.11,SSW,209,0.0,0.0,70,0.00,,---,0.00,VWS V14.00,2013-10-27 06:22:00,
2013-10-27 00:27:00,41.6,32.6,30.11,SSW,209,0.0,0.0,70,0.00,,---,0.00,VWS V14.00,2013-10-27 06:27:00,
2013-10-27 00:32:00,41.5,32.5,30.10,SSW,209,0.0,0.0,70,0.00,,---,0.00,VWS V14.00,2013-10-27 06:32:00,
2013-10-27 00:37:00,41.5,32.5,30.10,SSW,209,0.0,0.0,70,0.00,,---,0.00,VWS V14.00,2013-10-27 06:37:00,
2013-10-27 00:42:00,41.4,32.4,30.11,SSW,209,0.0,0.0,70,0.00,,---,0.00,VWS V14.00,2013-10-27 06:42:00,
2013-10-27 00:47:00,41.3,32.3,30.11,SSW,209,0.0,0.0,70,0.00,,---,0.00,VWS V14.00,2013-10-27 06:47:00,
2013-10-27 00:52:00,41.2,32.2,30.11,SSW,209,0.0,0.0,70,0.00,,---,0.00,VWS V14.00,2013-10-27 06:52:00,
2013-10-27 00:57:00,41.1,32.4,30.11,SSW,209,0.0,0.0,71,0.00,,---,0.00,VWS V14.00,2013-10-27 06:57:00,
2013-10-27 01:02:00,41.0,32.3,30.09,SSW,209,0.0,0.0,71,0.00,,---,0.00,VWS V14.00,2013-10-27 07:02:00,
2013-10-27 01:07:00,40.9,32.2,30.09,SSW,209,0.0,0.0,71,0.00,,---,0.00,VWS V14.00,2013-10-27 07:07:00,
2013-10-27 01:12:00,40.7,32.0,30.08,SSW,209,0.0,0.0,71,0.00,,---,0.00,VWS V14.00,2013-10-27 07:12:00,
2013-10-27 01:17:00,40.6,32.0,30.08,SSW,209,0.0,0.0,71,0.00,,---,0.00,VWS V14.00,2013-10-27 07:17:00,
2013-10-27 01:23:00,40.5,31.9,30.08,SSW,209,0.0,0.0,71,0.00,,---,0.00,VWS V14.00,2013-10-27 07:23:00,
2013-10-27 01:28:00,40.4,31.8,30.09,SSW,209,0.0,0.0,71,0.00,,---,0.00,VWS V14.00,2013-10-27 07:28:00,
2013-10-27 01:33:00,40.3,32.0,30.09,SSW,209,0.0,0.0,72,0.00,,---,0.00,VWS V14.00,2013-10-27 07:33:00,
2013-10-27 01:38:00,40.2,31.9,30.09,SSW,209,0.0,0.0,72,0.00,,---,0.00,VWS V14.00,2013-10-27 07:38:00,
2013-10-27 01:43:00,40.0,31.7,30.09,SSW,209,0.0,0.0,72,0.00,,---,0.00,VWS V14.00,2013-10-27 07:43:00,
2013-10-27 01:48:00,39.9,31.6,30.09,SSW,209,0.0,0.0,72,0.00,,---,0.00,VWS V14.00,2013-10-27 07:48:00,
2013-10-27 01:53:00,39.8,31.5,30.09,SSW,209,0.0,0.0,72,0.00,,---,0.00,VWS V14.00,2013-10-27 07:53:00,
2013-10-27 01:58:00,39.7,31.4,30.09,SSW,209,0.0,0.0,72,0.00,,---,0.00,VWS V14.00,2013-10-27 07:58:00,
2013-10-27 02:03:00,39.6,31.7,30.08,SSW,209,0.0,0.0,73,0.00,,---,0.00,VWS V14.00,2013-10-27 08:03:00,
2013-10-27 02:08:00,39.4,31.5,30.08,SSW,209,0.0,0.0,73,0.00,,---,0.00,VWS V14.00,2013-10-27 08:08:00,
2013-10-27 02:13:00,39.3,31.4,30.08,SSW,209,0.0,0.0,73,0.00,,---,0.00,VWS V14.00,2013-10-27 08:13:00,
2013-10-27 02:18:00,39.2,31.3,30.07,SSW,209,0.0,0.0,73,0.00,,---,0.00,VWS V14.00,2013-10-27 08:18:00,
2013-10-27 02:23:00,39.1,31.2,30.07,SSW,209,0.0,0.0,73,0.00,,---,0.00,VWS V14.00,2013-10-27 08:23:00,
2013-10-27 02:28:00,39.0,31.1,30.07,SSW,209,0.0,0.0,73,0.00,,---,0.00,VWS V14.00,2013-10-27 08:28:00,
2013-10-27 02:33:00,38.9,31.0,30.07,SSW,209,0.0,0.0,73,0.00,,---,0.00,VWS V14.00,2013-10-27 08:33:00,
2013-10-27 02:38:00,38.8,31.2,30.07,SSW,209,0.0,0.0,74,0.00,,---,0.00,VWS V14.00,2013-10-27 08:38:00,
2013-10-27 02:43:00,38.7,31.1,30.07,SSW,209,0.0,0.0,74,0.00,,---,0.00,VWS V14.00,2013-10-27 08:43:00,
2013-10-27 02:48:00,38.6,31.0,30.07,SSW,209,0.0,0.0,74,0.00,,---,0.00,VWS V14.00,2013-10-27 08:48:00,
2013-10-27 02:53:00,38.5,31.0,30.06,SSW,209,0.0,0.0,74,0.00,,---,0.00,VWS V14.00,2013-10-27 08:53:00,
2013-10-27 02:58:00,38.4,30.9,30.08,SSW,209,0.0,0.0,74,0.00,,---,0.00,VWS V14.00,2013-10-27 08:58:00,
2013-10-27 03:03:00,38.4,30.9,30.07,SSW,209,0.0,0.0,74,0.00,,---,0.00,VWS V14.00,2013-10-27 09:03:00,
2013-10-27 03:08:00,38.5,31.3,30.06,SSW,209,0.0,1.0,75,0.00,,---,0.00,VWS V14.00,2013-10-27 09:08:00,
2013-10-27 03:13:00,38.6,31.4,30.05,SSW,209,0.0,0.0,75,0.00,,---,0.00,VWS V14.00,2013-10-27 09:13:00,
2013-10-27 03:18:00,38.6,31.4,30.05,SSW,209,0.0,0.0,75,0.00,,---,0.00,VWS V14.00,2013-10-27 09:18:00,
2013-10-27 03:24:00,38.6,31.4,30.05,SSW,209,0.0,0.0,75,0.00,,---,0.00,VWS V14.00,2013-10-27 09:24:00,
2013-10-27 03:29:00,38.6,31.4,30.05,SSW,209,0.0,0.0,75,0.00,,---,0.00,VWS V14.00,2013-10-27 09:29:00,
2013-10-27 03:34:00,38.5,31.3,30.05,SSW,209,0.0,0.0,75,0.00,,---,0.00,VWS V14.00,2013-10-27 09:34:00,
2013-10-27 03:39:00,38.4,30.9,30.06,SSW,209,0.0,0.0,74,0.00,,---,0.00,VWS V14.00,2013-10-27 09:39:00,
2013-10-27 03:45:00,38.3,31.1,30.06,SSW,209,0.0,0.0,75,0.00,,---,0.00,VWS V14.00,2013-10-27 09:45:00,
2013-10-27 03:50:00,38.3,31.1,30.06,SSW,209,0.0,0.0,75,0.00,,---,0.00,VWS V14.00,2013-10-27 09:50:00,
2013-10-27 03:55:00,38.2,31.0,30.06,SSW,209,0.0,0.0,75,0.00,,---,0.00,VWS V14.00,2013-10-27 09:55:00,
2013-10-27 04:00:00,38.1,30.9,30.06,SSW,209,0.0,0.0,75,0.00,,---,0.00,VWS V14.00,2013-10-27 10:00:00,
2013-10-27 04:05:00,38.0,30.8,30.07,SSW,209,0.0,0.0,75,0.00,,---,0.00,VWS V14.00,2013-10-27 10:05:00,
2013-10-27 04:10:00,38.0,30.8,30.07,SSW,209,0.0,0.0,75,0.00,,---,0.00,VWS V14.00,2013-10-27 10:10:00,
2013-10-27 04:15:00,38.0,30.8,30.07,SSW,209,0.0,0.0,75,0.00,,---,0.00,VWS V14.00,2013-10-27 10:15:00,
2013-10-27 04:20:00,37.9,30.7,30.06,SSW,209,0.0,0.0,75,0.00,,---,0.00,VWS V14.00,2013-10-27 10:20:00,
2013-10-27 04:26:00,37.8,30.6,30.06,SSW,209,0.0,0.0,75,0.00,,---,0.00,VWS V14.00,2013-10-27 10:26:00,
2013-10-27 04:31:00,37.7,30.5,30.06,SSW,209,0.0,0.0,75,0.00,,---,0.00,VWS V14.00,2013-10-27 10:31:00,
2013-10-27 04:37:00,37.5,30.3,30.06,SSW,209,0.0,0.0,75,0.00,,---,0.00,VWS V14.00,2013-10-27 10:37:00,
2013-10-27 04:42:00,37.4,30.2,30.07,SSW,209,0.0,0.0,75,0.00,,---,0.00,VWS V14.00,2013-10-27 10:42:00,
2013-10-27 04:47:00,37.3,30.1,30.07,SSW,209,0.0,0.0,75,0.00,,---,0.00,VWS V14.00,2013-10-27 10:47:00,
2013-10-27 04:53:00,37.2,30.4,30.07,SSW,209,0.0,0.0,76,0.00,,---,0.00,VWS V14.00,2013-10-27 10:53:00,
2013-10-27 04:59:00,37.1,30.2,30.07,SSW,209,0.0,0.0,76,0.00,,---,0.00,VWS V14.00,2013-10-27 10:59:00,
2013-10-27 05:04:00,37.0,30.1,30.09,SSW,209,0.0,0.0,76,0.00,,---,0.00,VWS V14.00,2013-10-27 11:04:00,
2013-10-27 05:10:00,36.9,29.7,30.09,SSW,209,0.0,0.0,75,0.00,,---,0.00,VWS V14.00,2013-10-27 11:10:00,
2013-10-27 05:16:00,36.8,30.0,30.09,SSW,209,0.0,0.0,76,0.00,,---,0.00,VWS V14.00,2013-10-27 11:16:00,
2013-10-27 05:21:00,36.7,29.9,30.09,SSW,209,0.0,0.0,76,0.00,,---,0.00,VWS V14.00,2013-10-27 11:21:00,
2013-10-27 05:27:00,36.6,29.8,30.09,SSW,209,0.0,0.0,76,0.00,,---,0.00,VWS V14.00,2013-10-27 11:27:00,
2013-10-27 05:32:00,36.6,29.8,30.09,SSW,209,0.0,0.0,76,0.00,,---,0.00,VWS V14.00,2013-10-27 11:32:00,
2013-10-27 05:37:00,36.5,29.7,30.09,SSW,209,0.0,0.0,76,0.00,,---,0.00,VWS V14.00,2013-10-27 11:37:00,
2013-10-27 05:42:00,36.4,29.6,30.08,SSW,209,0.0,0.0,76,0.00,,---,0.00,VWS V14.00,2013-10-27 11:42:00,
2013-10-27 05:48:00,36.2,29.4,30.08,SSW,209,0.0,0.0,76,0.00,,---,0.00,VWS V14.00,2013-10-27 11:48:00,
2013-10-27 05:54:00,36.0,29.2,30.08,SSW,209,0.0,0.0,76,0.00,,---,0.00,VWS V14.00,2013-10-27 11:54:00,
2013-10-27 05:59:00,35.9,29.1,30.08,SSW,209,0.0,0.0,76,0.00,,---,0.00,VWS V14.00,2013-10-27 11:59:00,
2013-10-27 06:04:00,35.8,29.3,30.11,SSW,209,0.0,0.0,77,0.00,,---,0.00,VWS V14.00,2013-10-27 12:04:00,
2013-10-27 06:09:00,35.7,29.2,30.11,SSW,209,0.0,0.0,77,0.00,,---,0.00,VWS V14.00,2013-10-27 12:09:00,
2013-10-27 06:14:00,35.6,29.1,30.11,SSW,209,0.0,0.0,77,0.00,,---,0.00,VWS V14.00,2013-10-27 12:14:00,
2013-10-27 06:19:00,35.5,29.0,30.11,SSW,209,0.0,0.0,77,0.00,,---,0.00,VWS V14.00,2013-10-27 12:19:00,
2013-10-27 06:25:00,35.3,28.8,30.12,SSW,209,0.0,0.0,77,0.00,,---,0.00,VWS V14.00,2013-10-27 12:25:00,
2013-10-27 06:30:00,35.2,28.7,30.12,SSW,209,0.0,0.0,77,0.00,,---,0.00,VWS V14.00,2013-10-27 12:30:00,
2013-10-27 06:32:00,35.2,28.7,30.12,SSW,209,0.0,0.0,77,0.00,,---,0.00,VWS V14.00,2013-10-27 12:32:00,
2013-10-27 06:37:00,35.1,28.6,30.12,SSW,209,0.0,0.0,77,0.00,,---,0.00,VWS V14.00,2013-10-27 12:37:00,
2013-10-27 06:42:00,35.0,28.5,30.12,SSW,209,0.0,0.0,77,0.00,,---,0.00,VWS V14.00,2013-10-27 12:42:00,
2013-10-27 06:47:00,34.9,28.4,30.12,SSW,209,0.0,0.0,77,0.00,,---,0.00,VWS V14.00,2013-10-27 12:47:00,
2013-10-27 06:52:00,34.8,28.6,30.12,SSW,209,0.0,0.0,78,0.00,,---,0.00,VWS V14.00,2013-10-27 12:52:00,
2013-10-27 06:57:00,35.0,28.9,30.11,SSW,210,0.0,0.0,78,0.00,,---,0.00,VWS V14.00,2013-10-27 12:57:00,
2013-10-27 07:02:00,35.0,28.9,30.14,SSW,210,0.0,0.0,78,0.00,,---,0.00,VWS V14.00,2013-10-27 13:02:00,
2013-10-27 07:07:00,35.1,28.9,30.14,SSW,210,0.0,0.0,78,0.00,,---,0.00,VWS V14.00,2013-10-27 13:07:00,
2013-10-27 07:12:00,35.1,28.9,30.14,SSW,210,0.0,0.0,78,0.00,,---,0.00,VWS V14.00,2013-10-27 13:12:00,
2013-10-27 07:17:00,35.1,28.9,30.14,SSW,210,0.0,0.0,78,0.00,,---,0.00,VWS V14.00,2013-10-27 13:17:00,
2013-10-27 07:22:00,35.1,28.9,30.14,SSW,210,0.0,0.0,78,0.00,,---,0.00,VWS V14.00,2013-10-27 13:22:00,
2013-10-27 07:27:00,35.1,28.9,30.14,SSW,210,0.0,0.0,78,0.00,,---,0.00,VWS V14.00,2013-10-27 13:27:00,
2013-10-27 07:32:00,35.1,28.9,30.14,SSW,210,0.0,0.0,78,0.00,,---,0.00,VWS V14.00,2013-10-27 13:32:00,
2013-10-27 07:37:00,35.1,28.9,30.13,SSW,210,0.0,0.0,78,0.00,,---,0.00,VWS V14.00,2013-10-27 13:37:00,
2013-10-27 07:42:00,35.0,28.5,30.14,SSW,210,0.0,0.0,77,0.00,,---,0.00,VWS V14.00,2013-10-27 13:42:00,
2013-10-27 07:47:00,35.0,28.5,30.14,SSW,210,0.0,0.0,77,0.00,,---,0.00,VWS V14.00,2013-10-27 13:47:00,
2013-10-27 07:52:00,35.0,28.5,30.14,SSW,210,0.0,0.0,77,0.00,,---,0.00,VWS V14.00,2013-10-27 13:52:00,
2013-10-27 07:57:00,35.0,28.5,30.13,SSW,210,0.0,0.0,77,0.00,,---,0.00,VWS V14.00,2013-10-27 13:57:00,
2013-10-27 08:02:00,35.0,28.5,30.12,SSW,210,0.0,0.0,77,0.00,,---,0.00,VWS V14.00,2013-10-27 14:02:00,
2013-10-27 08:07:00,35.1,28.9,30.12,SSW,210,0.0,2.0,78,0.00,,---,0.00,VWS V14.00,2013-10-27 14:07:00,
2013-10-27 08:12:00,37.9,31.0,30.11,SSW,210,0.0,0.0,76,0.00,,---,0.00,VWS V14.00,2013-10-27 14:12:00,
2013-10-27 08:17:00,40.2,30.9,30.10,SSW,210,0.0,0.0,69,0.00,,---,0.00,VWS V14.00,2013-10-27 14:17:00,
2013-10-27 08:22:00,41.3,30.4,30.09,SSW,210,0.0,0.0,65,0.00,,---,0.00,VWS V14.00,2013-10-27 14:22:00,
2013-10-27 08:27:00,42.1,30.8,30.09,SSW,210,0.0,0.0,64,0.00,,---,0.00,VWS V14.00,2013-10-27 14:27:00,
2013-10-27 08:32:00,43.6,31.0,30.07,SSW,210,0.0,0.0,61,0.00,,---,0.00,VWS V14.00,2013-10-27 14:32:00,
2013-10-27 08:37:00,44.7,30.9,30.06,SSW,210,0.0,1.0,58,0.00,,---,0.00,VWS V14.00,2013-10-27 14:37:00,
2013-10-27 08:42:00,45.7,30.5,30.07,SSW,210,0.0,0.0,55,0.00,,---,0.00,VWS V14.00,2013-10-27 14:42:00,
2013-10-27 08:47:00,46.3,30.6,30.06,SSW,210,0.0,0.0,54,0.00,,---,0.00,VWS V14.00,2013-10-27 14:47:00,
2013-10-27 08:52:00,47.4,30.2,30.05,SSW,210,0.0,1.0,51,0.00,,---,0.00,VWS V14.00,2013-10-27 14:52:00,
2013-10-27 08:57:00,48.2,30.5,30.05,SSW,210,0.0,0.0,50,0.00,,---,0.00,VWS V14.00,2013-10-27 14:57:00,
2013-10-27 09:02:00,49.1,30.3,30.05,SSW,213,0.0,3.0,48,0.00,,---,0.00,VWS V14.00,2013-10-27 15:02:00,
2013-10-27 09:07:00,49.6,30.7,30.04,SSW,213,0.0,0.0,48,0.00,,---,0.00,VWS V14.00,2013-10-27 15:07:00,
2013-10-27 09:12:00,50.0,30.6,30.04,SSW,213,0.0,1.0,47,0.00,,---,0.00,VWS V14.00,2013-10-27 15:12:00,
2013-10-27 09:17:00,50.6,30.6,30.03,SSW,213,0.0,1.0,46,0.00,,---,0.00,VWS V14.00,2013-10-27 15:17:00,
2013-10-27 09:22:00,51.2,30.0,30.04,SSW,211,2.0,2.0,44,0.00,,---,0.00,VWS V14.00,2013-10-27 15:22:00,
2013-10-27 09:27:00,51.6,30.4,30.02,SW,233,1.0,3.0,44,0.00,,---,0.00,VWS V14.00,2013-10-27 15:27:00,
2013-10-27 09:32:00,51.9,30.1,30.02,SSW,199,2.0,3.0,43,0.00,,---,0.00,VWS V14.00,2013-10-27 15:32:00,
2013-10-27 09:37:00,52.4,30.6,30.02,WSW,238,1.0,3.0,43,0.00,,---,0.00,VWS V14.00,2013-10-27 15:37:00,
2013-10-27 09:42:00,52.8,30.4,30.02,WSW,238,5.0,5.0,42,0.00,,---,0.00,VWS V14.00,2013-10-27 15:42:00,
2013-10-27 09:47:00,53.2,30.7,30.01,SSW,213,0.0,4.0,42,0.00,,---,0.00,VWS V14.00,2013-10-27 15:47:00,
2013-10-27 09:52:00,53.6,31.1,30.00,SSW,213,0.0,0.0,42,0.00,,---,0.00,VWS V14.00,2013-10-27 15:52:00,
2013-10-27 09:57:00,54.0,31.5,30.00,SSW,213,0.0,2.0,42,0.00,,---,0.00,VWS V14.00,2013-10-27 15:57:00,
2013-10-27 10:02:00,54.5,30.7,30.02,SW,216,1.0,4.0,40,0.00,,---,0.00,VWS V14.00,2013-10-27 16:02:00,
2013-10-27 10:07:00,55.0,30.5,30.01,SW,221,1.0,2.0,39,0.00,,---,0.00,VWS V14.00,2013-10-27 16:07:00,
2013-10-27 10:12:00,55.5,31.0,30.00,SW,221,0.0,3.0,39,0.00,,---,0.00,VWS V14.00,2013-10-27 16:12:00,
2013-10-27 10:17:00,56.1,31.5,30.00,SW,223,0.0,0.0,39,0.00,,---,0.00,VWS V14.00,2013-10-27 16:17:00,
2013-10-27 10:22:00,56.4,31.1,30.00,SSW,194,1.0,2.0,38,0.00,,---,0.00,VWS V14.00,2013-10-27 16:22:00,
2013-10-27 10:27:00,56.7,30.7,29.99,South,186,2.0,5.0,37,0.00,,---,0.00,VWS V14.00,2013-10-27 16:27:00,
2013-10-27 10:32:00,57.1,31.1,29.98,SSW,192,0.0,1.0,37,0.00,,---,0.00,VWS V14.00,2013-10-27 16:32:00,
2013-10-27 10:37:00,57.6,29.5,29.98,SSW,195,1.0,4.0,34,0.00,,---,0.00,VWS V14.00,2013-10-27 16:37:00,
2013-10-27 10:42:00,58.3,30.1,29.98,SSW,195,0.0,0.0,34,0.00,,---,0.00,VWS V14.00,2013-10-27 16:42:00,
2013-10-27 10:47:00,58.8,31.9,29.96,SSW,194,0.0,0.0,36,0.00,,---,0.00,VWS V14.00,2013-10-27 16:47:00,
2013-10-27 10:52:00,59.0,30.0,29.96,SSW,197,0.0,1.0,33,0.00,,---,0.00,VWS V14.00,2013-10-27 16:52:00,
2013-10-27 10:57:00,59.3,29.5,29.96,WSW,250,0.0,1.0,32,0.00,,---,0.00,VWS V14.00,2013-10-27 16:57:00,
2013-10-27 11:02:00,59.5,28.9,29.97,WSW,250,0.0,1.0,31,0.00,,---,0.00,VWS V14.00,2013-10-27 17:02:00,
2013-10-27 11:07:00,59.8,29.9,29.95,WSW,248,0.0,0.0,32,0.00,,---,0.00,VWS V14.00,2013-10-27 17:07:00,
2013-10-27 11:12:00,60.1,29.4,29.95,South,190,0.0,4.0,31,0.00,,---,0.00,VWS V14.00,2013-10-27 17:12:00,
2013-10-27 11:17:00,60.4,30.4,29.95,SW,219,0.0,0.0,32,0.00,,---,0.00,VWS V14.00,2013-10-27 17:17:00,
2013-10-27 11:22:00,60.7,29.9,29.95,SW,215,3.0,4.0,31,0.00,,---,0.00,VWS V14.00,2013-10-27 17:22:00,
2013-10-27 11:27:00,61.1,29.5,29.94,SW,217,1.0,1.0,30,0.00,,---,0.00,VWS V14.00,2013-10-27 17:27:00,
2013-10-27 11:32:00,61.4,29.7,29.94,WSW,250,2.0,5.0,30,0.00,,---,0.00,VWS V14.00,2013-10-27 17:32:00,
2013-10-27 11:37:00,61.8,29.2,29.93,SSW,202,0.0,3.0,29,0.00,,---,0.00,VWS V14.00,2013-10-27 17:37:00,
2013-10-27 11:42:00,62.0,30.2,29.92,SSW,201,0.0,2.0,30,0.00,,---,0.00,VWS V14.00,2013-10-27 17:42:00,
2013-10-27 11:47:00,62.3,30.5,29.92,SSW,205,0.0,3.0,30,0.00,,---,0.00,VWS V14.00,2013-10-27 17:47:00,
2013-10-27 11:52:00,62.7,29.1,29.92,SSW,205,0.0,0.0,28,0.00,,---,0.00,VWS V14.00,2013-10-27 17:52:00,
2013-10-27 11:57:00,63.3,29.7,29.92,SSW,202,0.0,1.0,28,0.00,,---,0.00,VWS V14.00,2013-10-27 17:57:00,
2013-10-27 12:02:00,64.0,30.3,29.91,East,96,0.0,3.0,28,0.00,,---,0.00,VWS V14.00,2013-10-27 18:02:00,
2013-10-27 12:07:00,64.8,30.1,29.90,NNW,342,0.0,4.0,27,0.00,,---,0.00,VWS V14.00,2013-10-27 18:07:00,
2013-10-27 12:12:00,64.7,30.9,29.90,NNW,335,6.0,7.0,28,0.00,,---,0.00,VWS V14.00,2013-10-27 18:12:00,
2013-10-27 12:17:00,65.0,30.2,29.90,NNW,333,0.0,1.0,27,0.00,,---,0.00,VWS V14.00,2013-10-27 18:17:00,
2013-10-27 12:22:00,65.1,30.3,29.89,NE,55,0.0,1.0,27,0.00,,---,0.00,VWS V14.00,2013-10-27 18:22:00,
2013-10-27 12:27:00,65.1,30.3,29.89,North,10,2.0,5.0,27,0.00,,---,0.00,VWS V14.00,2013-10-27 18:27:00,
2013-10-27 12:32:00,65.9,29.1,29.88,NNW,342,0.0,3.0,25,0.00,,---,0.00,VWS V14.00,2013-10-27 18:32:00,
2013-10-27 12:37:00,66.0,29.2,29.88,ENE,77,0.0,1.0,25,0.00,,---,0.00,VWS V14.00,2013-10-27 18:37:00,
2013-10-27 12:42:00,66.1,29.3,29.87,NNW,348,5.0,6.0,25,0.00,,---,0.00,VWS V14.00,2013-10-27 18:42:00,
2013-10-27 12:47:00,66.4,28.5,29.87,NNW,347,2.0,6.0,24,0.00,,---,0.00,VWS V14.00,2013-10-27 18:47:00,
2013-10-27 12:52:00,66.8,28.9,29.85,North,360,0.0,4.0,24,0.00,,---,0.00,VWS V14.00,2013-10-27 18:52:00,
2013-10-27 12:57:00,67.6,29.6,29.85,SSW,211,0.0,1.0,24,0.00,,---,0.00,VWS V14.00,2013-10-27 18:57:00,
2013-10-27 13:02:00,67.6,29.6,29.84,NW,309,0.0,4.0,24,0.00,,---,0.00,VWS V14.00,2013-10-27 19:02:00,
2013-10-27 13:07:00,67.9,30.8,29.82,SE,142,4.0,10.0,25,0.00,,---,0.00,VWS V14.00,2013-10-27 19:07:00,
2013-10-27 13:12:00,69.0,33.7,29.83,SW,215,0.0,0.0,27,0.00,,---,0.00,VWS V14.00,2013-10-27 19:12:00,
2013-10-27 13:17:00,69.1,30.8,29.83,SSW,192,0.0,2.0,24,0.00,,---,0.00,VWS V14.00,2013-10-27 19:17:00,
2013-10-27 13:22:00,68.6,30.4,29.83,SSW,192,0.0,1.0,24,0.00,,---,0.00,VWS V14.00,2013-10-27 19:22:00,
2013-10-27 13:27:00,68.8,31.6,29.82,SE,141,0.0,1.0,25,0.00,,---,0.00,VWS V14.00,2013-10-27 19:27:00,
2013-10-27 13:32:00,69.0,30.7,29.81,NNE,13,0.0,4.0,24,0.00,,---,0.00,VWS V14.00,2013-10-27 19:32:00,
2013-10-27 13:37:00,69.5,33.1,29.79,South,169,0.0,0.0,26,0.00,,---,0.00,VWS V14.00,2013-10-27 19:37:00,
2013-10-27 13:42:00,69.9,30.5,29.80,WSW,248,6.0,9.0,23,0.00,,---,0.00,VWS V14.00,2013-10-27 19:42:00,
2013-10-27 13:47:00,70.0,29.4,29.80,SSW,205,0.0,6.0,22,0.00,,---,0.00,VWS V14.00,2013-10-27 19:47:00,
2013-10-27 13:52:00,70.2,32.8,29.79,SW,217,0.0,0.0,25,0.00,,---,0.00,VWS V14.00,2013-10-27 19:52:00,
2013-10-27 13:57:00,70.1,31.7,29.79,WSW,241,0.0,1.0,24,0.00,,---,0.00,VWS V14.00,2013-10-27 19:57:00,
2013-10-27 14:02:00,69.6,28.0,29.80,WSW,242,0.0,2.0,21,0.00,,---,0.00,VWS V14.00,2013-10-27 20:02:00,
2013-10-27 14:07:00,69.4,30.0,29.81,SW,232,1.0,5.0,23,0.00,,---,0.00,VWS V14.00,2013-10-27 20:07:00,
2013-10-27 14:12:00,70.2,30.7,29.80,SW,231,3.0,3.0,23,0.00,,---,0.00,VWS V14.00,2013-10-27 20:12:00,
2013-10-27 14:17:00,70.4,29.8,29.80,SSW,199,2.0,5.0,22,0.00,,---,0.00,VWS V14.00,2013-10-27 20:17:00,
2013-10-27 14:22:00,70.6,29.9,29.80,SW,236,2.0,3.0,22,0.00,,---,0.00,VWS V14.00,2013-10-27 20:22:00,
2013-10-27 14:27:00,70.2,29.6,29.79,SW,216,0.0,0.0,22,0.00,,---,0.00,VWS V14.00,2013-10-27 20:27:00,
2013-10-27 14:32:00,70.7,31.1,29.79,SW,217,0.0,0.0,23,0.00,,---,0.00,VWS V14.00,2013-10-27 20:32:00,
2013-10-27 14:37:00,71.4,31.7,29.79,SSW,206,0.0,0.0,23,0.00,,---,0.00,VWS V14.00,2013-10-27 20:37:00,
2013-10-27 14:42:00,69.8,29.3,29.78,SSW,206,0.0,0.0,22,0.00,,---,0.00,VWS V14.00,2013-10-27 20:42:00,
2013-10-27 14:47:00,69.4,28.9,29.80,NNE,29,3.0,3.0,22,0.00,,---,0.00,VWS V14.00,2013-10-27 20:47:00,
2013-10-27 14:53:00,69.1,28.7,29.79,NW,313,1.0,2.0,22,0.00,,---,0.00,VWS V14.00,2013-10-27 20:53:00,
2013-10-27 14:58:00,69.4,28.9,29.79,NNE,17,0.0,3.0,22,0.00,,---,0.00,VWS V14.00,2013-10-27 20:58:00,
2013-10-27 15:03:00,70.3,30.8,29.78,WNW,297,4.0,5.0,23,0.00,,---,0.00,VWS V14.00,2013-10-27 21:03:00,
2013-10-27 15:08:00,70.4,29.8,29.78,NW,322,4.0,4.0,22,0.00,,---,0.00,VWS V14.00,2013-10-27 21:08:00,
2013-10-27 15:13:00,69.5,30.1,29.78,NE,46,0.0,3.0,23,0.00,,---,0.00,VWS V14.00,2013-10-27 21:13:00,
2013-10-27 15:19:00,69.3,28.9,29.79,NE,34,0.0,2.0,22,0.00,,---,0.00,VWS V14.00,2013-10-27 21:19:00,
2013-10-27 15:24:00,69.2,28.8,29.79,NE,44,0.0,3.0,22,0.00,,---,0.00,VWS V14.00,2013-10-27 21:24:00,
2013-10-27 15:29:00,69.3,29.9,29.79,ENE,57,0.0,1.0,23,0.00,,---,0.00,VWS V14.00,2013-10-27 21:29:00,
2013-10-27 15:35:00,68.8,28.4,29.79,NE,46,0.0,7.0,22,0.00,,---,0.00,VWS V14.00,2013-10-27 21:35:00,
2013-10-27 15:40:00,68.9,29.6,29.79,NE,51,3.0,5.0,23,0.00,,---,0.00,VWS V14.00,2013-10-27 21:40:00,
2013-10-27 15:45:00,68.8,28.4,29.79,ENE,58,0.0,2.0,22,0.00,,---,0.00,VWS V14.00,2013-10-27 21:45:00,
2013-10-27 15:51:00,68.7,31.5,29.79,SE,132,0.0,0.0,25,0.00,,---,0.00,VWS V14.00,2013-10-27 21:51:00,
2013-10-27 15:57:00,68.5,29.3,29.79,West,273,1.0,4.0,23,0.00,,---,0.00,VWS V14.00,2013-10-27 21:57:00,
2013-10-27 16:02:00,68.2,29.0,29.80,North,360,0.0,3.0,23,0.00,,---,0.00,VWS V14.00,2013-10-27 22:02:00,
2013-10-27 16:07:00,68.0,28.9,29.80,NNW,330,0.0,4.0,23,0.00,,---,0.00,VWS V14.00,2013-10-27 22:07:00,
2013-10-27 16:13:00,67.8,28.7,29.80,ENE,68,0.0,1.0,23,0.00,,---,0.00,VWS V14.00,2013-10-27 22:13:00,
2013-10-27 16:18:00,67.7,29.6,29.81,ENE,69,0.0,1.0,24,0.00,,---,0.00,VWS V14.00,2013-10-27 22:18:00,
2013-10-27 16:23:00,67.4,30.4,29.80,ENE,68,0.0,2.0,25,0.00,,---,0.00,VWS V14.00,2013-10-27 22:23:00,
2013-10-27 16:28:00,67.3,30.3,29.80,ENE,68,0.0,1.0,25,0.00,,---,0.00,VWS V14.00,2013-10-27 22:28:00,
2013-10-27 16:34:00,67.1,29.1,29.80,ENE,57,1.0,3.0,24,0.00,,---,0.00,VWS V14.00,2013-10-27 22:34:00,
2013-10-27 16:39:00,67.0,30.0,29.80,NE,42,0.0,0.0,25,0.00,,---,0.00,VWS V14.00,2013-10-27 22:39:00,
2013-10-27 16:44:00,66.3,29.5,29.80,ENE,67,0.0,1.0,25,0.00,,---,0.00,VWS V14.00,2013-10-27 22:44:00,
2013-10-27 16:49:00,65.6,29.8,29.81,ENE,69,0.0,0.0,26,0.00,,---,0.00,VWS V14.00,2013-10-27 22:49:00,
2013-10-27 16:54:00,65.2,28.5,29.81,ENE,69,0.0,0.0,25,0.00,,---,0.00,VWS V14.00,2013-10-27 22:54:00,
2013-10-27 17:00:00,64.6,29.0,29.82,ENE,61,0.0,1.0,26,0.00,,---,0.00,VWS V14.00,2013-10-27 23:00:00,
2013-10-27 17:06:00,63.8,29.2,29.82,ENE,62,0.0,0.0,27,0.00,,---,0.00,VWS V14.00,2013-10-27 23:06:00,
2013-10-27 17:11:00,63.0,29.4,29.83,ENE,63,0.0,2.0,28,0.00,,---,0.00,VWS V14.00,2013-10-27 23:11:00,
2013-10-27 17:16:00,62.7,29.1,29.83,ENE,63,0.0,0.0,28,0.00,,---,0.00,VWS V14.00,2013-10-27 23:16:00,
2013-10-27 17:21:00,62.5,29.0,29.83,ENE,63,0.0,0.0,28,0.00,,---,0.00,VWS V14.00,2013-10-27 23:21:00,
2013-10-27 17:26:00,61.9,29.3,29.83,ENE,63,0.0,0.0,29,0.00,,---,0.00,VWS V14.00,2013-10-27 23:26:00,
2013-10-27 19:33:00,54.3,30.5,29.90,ENE,68,0.0,0.0,40,0.00,,---,0.00,VWS V14.00,2013-10-28 01:33:00,
2013-10-27 19:38:00,54.1,30.3,29.90,ENE,63,0.0,0.0,40,0.00,,---,0.00,VWS V14.00,2013-10-28 01:38:00,
2013-10-27 19:43:00,54.0,30.2,29.90,ENE,63,0.0,0.0,40,0.00,,---,0.00,VWS V14.00,2013-10-28 01:43:00,
2013-10-27 19:48:00,53.9,30.8,29.90,ENE,63,0.0,0.0,41,0.00,,---,0.00,VWS V14.00,2013-10-28 01:48:00,
2013-10-27 19:53:00,53.7,30.0,29.90,ENE,63,0.0,0.0,40,0.00,,---,0.00,VWS V14.00,2013-10-28 01:53:00,
2013-10-27 19:58:00,53.6,30.5,29.90,ENE,63,0.0,0.0,41,0.00,,---,0.00,VWS V14.00,2013-10-28 01:58:00,
2013-10-27 20:03:00,53.5,30.4,29.82,ENE,63,0.0,0.0,41,0.00,,---,0.00,VWS V14.00,2013-10-28 02:03:00,
2013-10-27 20:08:00,53.3,30.2,29.82,ENE,63,0.0,0.0,41,0.00,,---,0.00,VWS V14.00,2013-10-28 02:08:00,
2013-10-27 20:13:00,53.1,30.6,29.82,ENE,63,0.0,0.0,42,0.00,,---,0.00,VWS V14.00,2013-10-28 02:13:00,
2013-10-27 20:18:00,52.9,30.5,29.81,ENE,63,0.0,0.0,42,0.00,,---,0.00,VWS V14.00,2013-10-28 02:18:00,
2013-10-27 20:23:00,52.6,30.8,29.82,ENE,63,0.0,0.0,43,0.00,,---,0.00,VWS V14.00,2013-10-28 02:23:00,
2013-10-27 20:28:00,52.3,30.5,29.83,ENE,63,0.0,0.0,43,0.00,,---,0.00,VWS V14.00,2013-10-28 02:28:00,
2013-10-27 20:33:00,51.6,30.4,29.83,ENE,63,0.0,0.0,44,0.00,,---,0.00,VWS V14.00,2013-10-28 02:33:00,
2013-10-27 20:38:00,51.4,30.2,29.83,ENE,63,0.0,0.0,44,0.00,,---,0.00,VWS V14.00,2013-10-28 02:38:00,
2013-10-27 20:43:00,51.2,30.0,29.83,ENE,63,0.0,0.0,44,0.00,,---,0.00,VWS V14.00,2013-10-28 02:43:00,
2013-10-27 20:48:00,51.0,30.4,29.83,ENE,63,0.0,1.0,45,0.00,,---,0.00,VWS V14.00,2013-10-28 02:48:00,
2013-10-27 20:53:00,50.7,29.6,29.83,ENE,63,0.0,0.0,44,0.00,,---,0.00,VWS V14.00,2013-10-28 02:53:00,
2013-10-27 20:58:00,50.5,30.0,29.83,ENE,63,0.0,2.0,45,0.00,,---,0.00,VWS V14.00,2013-10-28 02:58:00,
2013-10-27 21:03:00,50.3,29.8,29.81,ENE,63,0.0,0.0,45,0.00,,---,0.00,VWS V14.00,2013-10-28 03:03:00,
2013-10-27 21:08:00,50.3,29.8,29.81,ENE,63,0.0,0.0,45,0.00,,---,0.00,VWS V14.00,2013-10-28 03:08:00,
2013-10-27 21:13:00,50.1,30.1,29.81,ENE,63,0.0,0.0,46,0.00,,---,0.00,VWS V14.00,2013-10-28 03:13:00,
2013-10-27 21:18:00,49.9,30.5,29.81,ENE,63,0.0,0.0,47,0.00,,---,0.00,VWS V14.00,2013-10-28 03:18:00,
2013-10-27 21:23:00,49.8,30.4,29.81,ENE,63,0.0,0.0,47,0.00,,---,0.00,VWS V14.00,2013-10-28 03:23:00,
2013-10-27 21:28:00,49.7,30.3,29.82,ENE,63,0.0,0.0,47,0.00,,---,0.00,VWS V14.00,2013-10-28 03:28:00,
2013-10-27 21:33:00,49.5,31.1,29.81,ENE,63,0.0,0.0,49,0.00,,---,0.00,VWS V14.00,2013-10-28 03:33:00,
2013-10-27 21:38:00,49.3,31.0,29.83,ENE,63,0.0,0.0,49,0.00,,---,0.00,VWS V14.00,2013-10-28 03:38:00,
2013-10-27 21:43:00,49.1,30.8,29.83,ENE,63,0.0,0.0,49,0.00,,---,0.00,VWS V14.00,2013-10-28 03:43:00,
2013-10-27 21:48:00,49.0,30.7,29.83,ENE,63,0.0,0.0,49,0.00,,---,0.00,VWS V14.00,2013-10-28 03:48:00,
2013-10-27 21:53:00,48.8,30.5,29.83,ENE,63,0.0,0.0,49,0.00,,---,0.00,VWS V14.00,2013-10-28 03:53:00,
2013-10-27 21:58:00,48.6,30.8,29.83,ENE,63,0.0,0.0,50,0.00,,---,0.00,VWS V14.00,2013-10-28 03:58:00,
2013-10-27 22:01:00,48.5,30.7,29.83,ENE,63,0.0,0.0,50,0.00,,---,0.00,VWS V14.00,2013-10-28 04:01:00,
2013-10-27 22:02:00,48.4,30.6,29.80,ENE,63,0.0,0.0,50,0.00,,---,0.00,VWS V14.00,2013-10-28 04:02:00,
2013-10-27 22:04:00,48.3,30.5,29.81,ENE,63,0.0,0.0,50,0.00,,---,0.00,VWS V14.00,2013-10-28 04:04:00,
2013-10-27 22:05:00,48.3,31.0,29.81,ENE,63,0.0,0.0,51,0.00,,---,0.00,VWS V14.00,2013-10-28 04:05:00,
2013-10-27 22:06:00,48.3,31.0,29.81,ENE,63,0.0,0.0,51,0.00,,---,0.00,VWS V14.00,2013-10-28 04:06:00,
2013-10-27 22:09:00,48.1,30.8,29.81,ENE,63,0.0,0.0,51,0.00,,---,0.00,VWS V14.00,2013-10-28 04:09:00,
2013-10-27 22:14:00,47.9,30.7,29.81,ENE,63,0.0,0.0,51,0.00,,---,0.00,VWS V14.00,2013-10-28 04:14:00,
2013-10-27 22:19:00,47.7,31.0,29.81,ENE,63,0.0,0.0,52,0.00,,---,0.00,VWS V14.00,2013-10-28 04:19:00,
2013-10-27 22:24:00,47.5,30.8,29.81,ENE,63,0.0,0.0,52,0.00,,---,0.00,VWS V14.00,2013-10-28 04:24:00,
2013-10-27 22:29:00,47.3,30.6,29.81,ENE,63,0.0,0.0,52,0.00,,---,0.00,VWS V14.00,2013-10-28 04:29:00,
2013-10-27 22:34:00,47.1,30.4,29.81,ENE,63,0.0,0.0,52,0.00,,---,0.00,VWS V14.00,2013-10-28 04:34:00,
2013-10-27 22:39:00,46.9,30.7,29.81,ENE,63,0.0,0.0,53,0.00,,---,0.00,VWS V14.00,2013-10-28 04:39:00,
2013-10-27 22:44:00,46.7,30.5,29.81,ENE,63,0.0,0.0,53,0.00,,---,0.00,VWS V14.00,2013-10-28 04:44:00,
2013-10-27 22:50:00,46.5,30.3,29.81,ENE,63,0.0,0.0,53,0.00,,---,0.00,VWS V14.00,2013-10-28 04:50:00,
2013-10-27 22:55:00,46.3,31.0,29.82,ENE,63,0.0,0.0,55,0.00,,---,0.00,VWS V14.00,2013-10-28 04:55:00,
2013-10-27 23:00:00,45.9,30.7,29.82,ENE,63,0.0,0.0,55,0.00,,---,0.00,VWS V14.00,2013-10-28 05:00:00,
2013-10-27 23:05:00,45.7,30.9,29.78,ENE,63,0.0,0.0,56,0.00,,---,0.00,VWS V14.00,2013-10-28 05:05:00,
2013-10-27 23:10:00,45.6,30.8,29.78,ENE,63,0.0,0.0,56,0.00,,---,0.00,VWS V14.00,2013-10-28 05:10:00,
2013-10-27 23:15:00,45.6,30.8,29.79,ENE,63,0.0,2.0,56,0.00,,---,0.00,VWS V14.00,2013-10-28 05:15:00,
2013-10-27 23:20:00,46.0,30.8,29.78,ENE,63,0.0,1.0,55,0.00,,---,0.00,VWS V14.00,2013-10-28 05:20:00,
2013-10-27 23:25:00,46.4,30.2,29.78,ENE,63,0.0,0.0,53,0.00,,---,0.00,VWS V14.00,2013-10-28 05:25:00,
2013-10-27 23:30:00,46.5,30.3,29.78,ENE,63,0.0,0.0,53,0.00,,---,0.00,VWS V14.00,2013-10-28 05:30:00,
2013-10-27 23:35:00,46.5,30.3,29.78,ENE,63,0.0,0.0,53,0.00,,---,0.00,VWS V14.00,2013-10-28 05:35:00,
2013-10-27 23:40:00,46.7,30.0,29.78,ENE,73,3.0,3.0,52,0.00,,---,0.00,VWS V14.00,2013-10-28 05:40:00,
2013-10-27 23:45:00,47.0,29.8,29.78,SW,219,1.0,3.0,51,0.00,,---,0.00,VWS V14.00,2013-10-28 05:45:00,
2013-10-27 23:50:00,47.5,29.8,29.77,SSW,193,0.0,0.0,50,0.00,,---,0.00,VWS V14.00,2013-10-28 05:50:00,
2013-10-27 23:55:00,47.7,30.0,29.77,SSW,193,0.0,0.0,50,0.00,,---,0.00,VWS V14.00,2013-10-28 05:55:00,